EHI
24 21 16 9 3 1 0 0 0 0 0 0 0 0 0 0 0 0 0 1 2 3 2 2 2 2 1 0 0 0 0 0 0 0 0 0 1 1 1 0 0 0 0 0 0 1 1 1 0
19 14 9 5 2 0 0 0 0 0 0 0 0 0 0 0 0 0 0 0 1 2 2 2 2 2 2 0 0 0 0 0 0 0 0 0 1 2 1 0 0 0 0 0 0 1 1 0 0
15 9 4 2 1 0 0 0 0 0 0 0 0 0 0 0 0 0 0 0 1 2 2 2 2 2 1 0 0 0 0 0 0 0 0 0 1 1 1 0 0 0 0 0 0 1 0 0 0
11 7 2 1 0 0 0 0 0 0 0 0 0 0 0 0 0 0 0 0 0 1 2 2 1 1 0 0 0 0 0 0 0 0 0 0 0 0 0 0 0 0 0 0 1 1 1 0 1
9 5 1 0 0 0 0 0 0 0 0 0 0 0 0 0 0 0 0 0 0 0 1 1 0 0 0 0 0 0 0 0 0 0 0 0 0 0 0 0 0 0 0 0 1 1 1 0 1
8 4 1 0 0 0 0 0 0 0 0 0 0 0 0 0 0 0 0 0 0 0 0 0 0 0 0 0 0 0 0 0 0 0 0 0 0 0 0 0 0 0 0 0 0 0 0 0 1
5 2 0 0 0 0 0 0 1 0 0 0 0 0 0 0 0 0 0 0 0 0 0 0 0 0 0 0 0 0 0 0 0 0 0 0 0 0 0 0 0 0 0 0 0 0 0 0 0
2 1 0 0 0 0 0 0 0 0 0 0 0 0 0 0 0 0 0 0 0 0 0 0 0 0 0 0 0 0 0 0 0 0 0 0 0 1 0 0 0 0 0 0 0 0 0 0 0
1 0 0 0 0 0 0 0 0 0 0 0 0 1 1 0 0 0 0 0 0 0 0 0 0 0 0 0 0 0 0 0 0 0 0 0 0 0 0 0 0 0 0 0 0 0 0 0 0
0 0 0 0 0 0 0 0 0 0 0 0 0 1 2 1 0 0 0 0 0 0 0 0 0 0 0 0 0 0 0 0 0 0 0 0 0 0 0 0 0 0 0 0 0 0 0 0 0
0 0 0 0 0 0 1 0 0 0 0 0 1 1 1 1 0 0 0 0 0 0 0 0 0 0 0 0 0 0 0 0 0 0 0 0 0 0 0 0 0 0 0 0 0 0 0 0 0
0 0 0 0 0 1 1 0 0 0 0 1 1 1 1 0 0 0 0 0 0 0 0 0 0 0 0 0 0 0 0 0 0 0 0 0 0 0 0 0 0 0 0 0 0 0 0 0 0
0 0 1 1 1 2 1 1 1 0 0 1 2 1 1 0 0 0 0 0 0 0 0 0 0 0 0 0 0 0 0 0 0 0 0 0 0 0 0 0 0 0 0 0 0 0 0 0 0
0 0 0 1 1 2 2 2 1 1 0 1 2 1 0 0 0 0 0 0 0 0 0 0 0 0 0 0 0 0 0 0 0 0 0 0 0 0 0 0 0 0 0 0 0 0 0 0 0
0 0 0 0 1 1 1 1 1 1 1 1 2 1 0 0 0 0 0 0 0 0 0 0 0 0 0 0 0 0 0 0 0 0 0 0 0 0 0 0 0 0 0 0 0 0 0 0 0
0 0 0 0 0 0 0 0 1 1 1 1 1 1 0 0 0 0 0 0 0 0 0 0 0 0 0 0 0 0 0 0 0 0 0 0 0 0 0 0 0 0 0 0 0 0 0 0 0
0 0 0 0 0 0 0 0 0 0 0 0 1 1 1 0 0 0 0 0 1 1 0 0 0 0 0 0 0 0 0 0 0 0 0 0 0 0 0 0 0 0 0 0 0 0 0 0 0
0 0 0 0 0 0 0 0 0 0 0 0 2 2 1 0 0 0 0 0 1 1 0 0 0 0 0 0 0 0 0 0 0 0 0 0 0 0 0 0 0 0 0 0 0 0 0 0 0
0 0 0 0 0 0 0 0 0 0 0 0 1 2 2 1 0 0 0 0 1 1 0 0 1 1 1 1 1 1 0 0 0 0 0 0 0 0 0 0 0 0 0 0 0 0 0 0 0
0 0 0 0 0 0 0 0 0 0 0 0 1 2 3 1 0 0 0 0 0 0 0 0 0 1 2 2 2 2 1 0 0 0 0 0 0 0 0 0 0 0 0 0 0 0 0 0 0
0 0 0 0 0 0 0 0 0 0 0 0 0 1 3 3 2 2 2 2 1 0 0 0 0 1 2 3 3 3 2 0 0 0 0 0 0 0 0 0 0 0 0 0 0 0 0 0 0
0 0 0 0 0 0 0 0 0 0 0 0 0 0 2 4 4 5 5 3 1 0 0 0 0 1 3 3 3 3 1 0 0 0 0 0 0 0 0 0 0 0 0 0 0 0 0 0 0
0 0 0 0 0 0 0 0 0 0 0 0 0 0 1 3 5 7 7 5 3 2 2 1 1 2 3 3 3 2 1 0 0 0 0 0 0 0 0 0 0 0 0 0 0 0 0 0 1
0 0 0 0 0 0 0 0 0 0 0 0 0 0 1 3 6 8 8 6 5 5 5 3 3 3 3 3 3 1 1 0 0 0 0 0 0 0 0 0 0 0 0 0 0 0 0 1 2
0 0 0 0 0 0 0 0 0 0 0 0 0 0 1 4 6 8 8 7 6 6 5 4 3 3 3 3 2 1 1 0 0 0 0 0 0 0 0 0 0 0 0 0 0 0 0 1 2
0 0 0 0 0 0 0 0 0 0 0 0 0 0 1 4 6 7 7 6 5 5 4 3 3 3 2 2 2 1 0 0 0 0 0 0 0 0 0 0 0 0 0 0 0 0 0 0 1
0 0 0 0 0 0 0 0 0 0 0 0 0 0 1 3 6 6 6 6 6 5 3 2 2 1 1 1 1 0 0 0 0 0 0 0 0 0 0 0 0 0 0 0 0 0 0 0 0
0 0 0 0 0 0 0 0 0 0 0 0 0 0 1 3 4 5 5 6 7 6 3 2 2 2 1 0 0 0 0 0 0 0 0 0 0 0 0 0 0 0 0 0 0 0 0 0 0
0 0 0 0 0 0 0 0 0 0 0 0 0 0 1 2 4 4 4 6 8 7 5 3 3 4 2 1 0 0 0 0 0 0 0 0 0 0 0 0 0 0 0 0 0 0 0 0 0
0 0 0 0 0 0 0 0 0 0 0 0 0 0 1 2 4 4 4 5 7 7 5 4 4 5 3 1 0 0 0 0 0 0 0 0 0 0 0 0 0 0 0 0 0 0 0 0 0
Wind_Speed
11 10 6 2 2 1 5 6 8 7 7 7 8 9 12 12 9 7 2 4 7 8 8 10 11 11 10 10 10 9 9 10 10 10 10 10 10 10 10 10 11 11 11 11 11 11 11 11 10
10 6 3 3 2 2 5 7 9 9 6 5 8 10 11 11 10 8 3 3 6 9 9 9 10 10 11 10 10 10 10 10 10 10 10 10 10 11 10 10 11 11 12 12 12 12 11 11 10
11 6 3 1 3 5 6 7 8 8 6 6 7 9 9 7 8 5 4 4 7 9 9 9 10 10 10 9 9 9 9 10 10 9 9 10 10 11 11 11 11 11 11 12 12 11 11 10 10
5 3 2 1 6 9 8 6 5 6 6 6 7 9 9 8 6 6 5 6 8 9 9 8 9 9 9 9 9 9 9 9 9 9 9 9 10 10 11 11 11 11 11 11 11 10 10 10 9
3 2 1 3 6 8 7 6 5 7 7 8 10 9 9 7 8 7 5 5 7 8 8 8 9 8 8 8 8 8 8 8 9 9 9 9 9 10 11 11 11 11 10 10 10 10 10 9 9
3 2 1 3 7 7 6 6 5 7 7 7 8 9 7 7 6 5 5 5 6 6 8 8 9 9 9 8 8 8 8 8 8 7 8 8 9 10 10 10 10 10 10 10 10 10 10 9 8
2 1 2 4 6 6 6 6 6 7 7 7 6 8 7 7 5 4 4 4 4 5 6 7 8 8 9 9 8 7 7 7 6 6 6 7 8 9 10 10 10 10 10 10 10 9 9 9 8
2 1 2 4 5 6 6 7 7 7 7 6 5 6 7 7 6 4 4 4 4 4 4 5 5 6 6 6 7 6 6 5 5 4 4 6 7 8 10 10 10 9 9 9 9 9 8 7 6
2 0 2 4 4 5 6 6 7 6 8 8 9 10 10 9 7 5 3 3 3 4 3 4 4 4 4 5 7 5 5 4 3 3 3 3 3 5 6 9 9 8 7 8 7 6 5 5 4
0 1 4 4 4 6 5 5 5 5 7 8 10 10 10 8 7 5 4 4 4 4 3 4 4 4 4 4 4 2 3 2 1 2 2 2 3 4 6 7 7 7 6 5 4 3 3 2 1
3 3 4 5 6 6 5 5 5 5 5 6 8 9 8 7 5 4 4 4 4 4 3 4 4 4 4 3 3 2 2 1 2 2 3 3 3 3 3 2 3 2 3 1 2 2 1 1 2
4 4 4 5 5 4 4 5 6 6 5 6 8 8 6 5 5 4 4 4 4 5 4 4 4 4 5 4 2 2 2 2 2 2 3 2 2 2 2 2 2 1 1 1 1 1 2 3 3
4 4 4 4 4 4 5 5 5 4 5 7 8 7 6 5 4 4 4 5 5 4 4 4 4 5 5 3 1 3 3 2 3 2 2 3 2 3 2 2 2 2 1 2 2 3 4 5 5
4 4 3 3 4 3 4 3 3 4 5 6 7 5 5 4 4 4 4 4 4 4 5 4 4 5 4 3 3 3 2 2 2 2 2 3 3 3 2 2 3 2 2 2 3 4 4 4 4
4 3 3 4 4 4 2 2 3 6 6 6 5 5 5 4 4 4 4 4 4 5 5 4 4 5 6 5 4 3 3 3 3 2 3 3 3 3 3 3 3 2 2 3 3 4 4 4 4
5 4 3 4 5 5 3 1 4 6 7 5 4 5 4 4 4 3 4 3 4 5 5 5 4 6 5 4 3 3 3 3 3 2 3 4 4 5 4 2 2 3 3 3 3 3 3 4 3
6 5 4 5 5 4 4 2 5 6 6 5 5 5 5 5 4 3 4 3 4 4 5 5 4 5 5 4 3 3 3 3 2 3 3 3 4 4 3 2 2 4 3 3 3 4 3 3 3
4 4 3 4 6 5 4 3 5 6 6 5 5 5 5 5 5 4 4 4 4 4 4 5 4 4 4 3 3 2 3 2 3 2 2 3 3 4 3 3 4 4 3 3 3 3 3 2 2
4 3 0 2 5 4 3 4 4 6 5 4 4 5 5 6 7 6 5 5 4 4 4 5 4 3 3 2 2 2 2 1 2 2 2 2 3 4 4 4 4 4 3 3 3 3 3 2 2
5 4 2 3 4 3 3 3 4 6 6 4 4 4 5 6 7 6 6 5 4 4 3 4 4 4 3 2 1 1 2 1 2 1 2 2 3 3 4 4 3 3 3 3 3 3 2 1 1
6 5 3 1 2 5 5 4 5 6 6 5 4 4 5 6 7 7 6 6 4 4 4 3 4 4 4 3 2 2 2 1 2 2 1 2 3 3 3 3 3 3 3 2 2 2 2 1 1
5 3 3 4 5 4 5 2 5 7 7 6 5 4 4 4 6 6 6 6 5 4 4 3 3 4 3 3 2 2 2 1 2 2 1 2 2 3 2 2 3 3 2 2 2 2 1 1 1
4 3 6 7 7 6 6 4 3 7 6 6 6 6 5 5 6 6 6 6 6 5 4 3 3 3 3 3 3 1 1 1 2 2 2 2 2 2 2 2 2 3 2 3 3 2 1 1 1
4 6 9 8 6 7 6 4 2 3 4 5 6 6 6 6 6 6 6 6 5 5 4 3 4 4 3 3 3 3 2 2 2 2 1 1 2 1 2 2 2 2 2 3 2 2 2 1 1
6 5 4 4 5 4 4 3 3 4 4 5 6 6 6 6 6 7 7 6 5 5 5 4 4 3 3 2 2 3 3 2 2 2 2 2 2 2 1 1 1 2 2 2 2 2 2 2 2
6 6 5 4 3 2 3 3 4 6 5 5 6 6 6 7 6 6 6 6 5 5 4 4 4 4 3 2 2 3 3 2 1 2 2 1 2 2 3 2 2 2 2 2 2 1 1 1 2
6 6 7 7 7 5 2 4 6 6 6 6 6 6 5 6 6 6 6 6 6 5 5 4 4 4 3 2 2 3 3 2 2 2 2 2 2 2 3 2 2 2 2 2 2 1 1 2 2
8 6 5 5 4 4 2 3 4 7 6 6 6 6 6 6 6 6 6 6 6 5 5 4 4 4 3 2 3 2 3 3 2 2 2 2 2 2 2 2 2 3 3 2 2 1 1 2 2
8 8 6 5 5 4 2 0 3 7 7 6 6 6 5 5 6 6 6 5 5 5 4 4 4 4 3 2 2 3 3 3 3 2 2 2 2 3 2 2 2 2 2 3 3 1 1 1 2
7 7 6 5 5 5 2 1 3 5 6 6 5 5 5 5 4 5 6 5 5 5 5 4 4 4 3 2 2 3 3 3 3 3 3 2 2 2 2 3 2 2 2 2 3 2 1 1 1
Wind_Direction
275 256 248 259 259 140 61 63 65 55 57 48 48 62 64 50 50 83 97 58 78 85 85 74 61 59 58 58 62 66 65 65 67 68 67 68 67 69 68 69 70 69 68 68 70 78 77 75 72
281 275 266 239 259 86 71 65 67 63 69 70 60 63 71 65 72 94 96 72 82 85 81 74 68 65 63 61 61 64 65 65 66 69 68 70 69 68 68 69 71 69 69 71 72 76 75 75 74
270 268 266 277 30 58 78 71 76 76 65 71 77 58 51 61 70 89 106 104 85 86 87 82 75 69 67 67 68 67 65 65 66 68 70 73 73 71 70 72 73 72 72 73 74 73 72 72 71
264 258 247 58 60 61 75 86 95 94 79 67 81 75 68 51 75 99 107 100 97 98 97 94 87 79 73 69 69 70 68 67 68 70 74 75 75 74 76 75 75 75 73 74 76 74 70 69 65
247 249 157 88 77 74 70 74 74 74 75 70 76 89 86 71 86 97 91 89 95 103 108 107 101 95 86 77 71 69 68 66 67 70 75 78 80 79 78 77 75 75 76 75 75 76 75 72 64
272 249 141 95 92 83 78 75 77 79 81 87 95 99 95 101 92 94 93 86 90 101 114 119 114 106 99 90 81 77 75 76 73 74 77 85 88 88 84 81 77 76 77 77 76 77 75 72 66
297 329 95 104 101 89 78 70 66 75 70 58 72 96 112 113 107 112 100 91 88 99 115 127 135 122 112 102 94 89 85 86 88 87 89 98 100 98 92 85 81 80 79 80 79 78 76 72 65
303 310 101 95 97 89 79 76 71 71 70 60 52 94 120 127 134 119 103 102 98 91 96 116 122 127 129 119 107 109 110 103 104 108 106 115 117 111 102 92 86 83 85 86 84 82 80 73 67
298 320 64 76 92 101 102 95 87 89 89 79 69 79 112 128 130 121 117 111 101 91 91 95 101 109 114 117 119 132 131 124 127 133 139 139 130 116 103 97 100 97 96 96 95 97 94 86 72
72 57 64 68 86 107 109 100 101 96 96 96 95 97 116 131 135 138 138 124 113 102 101 103 99 94 90 87 111 126 114 118 124 109 120 115 96 92 102 112 117 115 115 119 124 126 127 118 104
84 81 77 78 80 92 98 93 82 83 81 94 115 123 130 135 135 138 126 105 104 101 91 93 100 95 96 89 91 77 82 93 67 56 76 81 87 100 105 124 127 129 135 142 152 175 145 104 80
94 78 77 81 87 104 94 89 83 68 72 96 111 124 135 138 139 134 117 105 97 89 84 79 87 93 93 90 95 95 85 72 69 41 70 73 78 89 94 98 98 105 94 52 52 61 67 66 65
110 99 91 90 90 93 95 93 99 98 96 105 121 133 138 135 130 121 112 110 105 102 92 81 80 83 90 86 75 81 75 69 70 36 54 73 70 73 69 80 79 79 73 62 51 60 54 54 49
112 121 129 131 133 129 125 127 129 126 121 121 132 135 127 127 126 122 118 109 108 105 97 88 90 91 89 91 81 77 72 74 63 37 49 72 72 75 72 76 69 61 55 54 62 70 69 63 57
145 155 165 179 171 156 140 123 149 143 141 140 144 138 131 134 138 137 125 115 112 105 100 89 88 85 76 69 63 76 72 65 58 36 35 63 71 78 72 66 73 62 57 58 59 63 69 74 69
205 204 206 184 175 168 178 165 146 151 151 146 150 141 140 143 143 131 121 119 111 112 109 98 89 91 83 76 70 62 67 61 55 42 27 49 68 77 70 58 74 74 65 62 70 62 62 67 65
213 217 205 162 165 176 179 152 143 151 154 156 157 147 154 150 145 135 134 124 110 113 113 113 100 98 96 90 87 71 70 61 53 44 28 36 58 78 82 67 66 70 62 57 69 67 61 71 65
221 209 193 154 156 169 173 173 165 163 168 168 165 159 160 153 150 139 130 117 105 103 106 107 103 100 103 97 87 75 66 54 53 44 37 40 49 70 76 78 69 70 66 58 69 80 69 70 64
273 277 274 130 142 164 189 190 186 166 171 178 170 167 161 150 142 133 133 126 122 113 109 115 118 113 101 93 90 92 86 71 64 45 36 45 66 78 77 73 71 73 74 69 68 73 73 61 64
253 251 220 160 155 182 208 213 188 169 170 171 174 164 154 149 142 138 141 138 140 132 133 131 121 110 99 81 82 108 103 100 95 66 39 54 71 80 97 105 100 94 85 71 66 69 66 42 48
245 248 247 215 190 221 226 218 183 165 161 159 164 157 154 154 148 149 150 143 143 139 138 130 125 116 110 109 86 77 84 73 88 80 48 51 71 77 88 104 112 117 110 106 98 81 80 53 9
257 255 251 250 246 237 222 226 175 167 163 161 163 159 154 150 147 149 147 146 146 140 134 133 129 124 123 126 111 108 119 111 121 121 120 96 92 90 83 99 113 115 110 107 106 95 77 72 15
276 276 255 248 258 265 237 240 172 163 162 162 164 164 155 152 150 150 148 143 143 136 132 132 126 118 115 110 111 108 103 116 112 106 106 100 94 103 109 93 92 105 115 113 106 99 75 64 58
263 265 259 245 250 254 232 226 164 162 154 151 154 156 155 156 148 144 137 129 126 125 128 129 118 116 115 125 145 155 138 134 118 114 116 116 109 94 97 97 95 105 109 112 124 130 119 88 68
234 252 258 225 217 232 205 195 126 120 126 134 143 142 145 144 141 141 137 137 134 133 136 137 129 129 139 159 167 157 150 148 140 144 154 146 130 130 129 107 103 92 97 101 102 121 126 125 120
239 239 250 263 249 232 197 162 124 117 111 114 119 128 136 140 143 143 145 143 136 137 144 149 147 150 159 170 168 151 141 139 143 149 142 129 125 133 127 118 114 111 101 100 100 91 110 103 106
246 243 262 279 280 267 185 128 142 135 129 126 127 129 128 135 141 143 146 147 146 153 158 160 157 159 165 175 160 147 145 143 148 144 130 127 123 119 125 140 136 123 110 95 91 80 103 84 79
244 252 259 259 273 271 224 195 167 153 150 140 136 138 139 140 143 146 149 151 154 159 161 161 160 162 164 181 178 159 152 146 145 132 134 144 137 124 134 137 135 128 126 122 103 85 101 111 109
226 230 240 260 265 263 251 153 113 144 143 143 141 139 143 144 148 151 155 158 157 152 155 158 160 157 165 184 176 157 150 148 145 142 141 132 132 143 160 144 126 121 123 129 118 116 112 119 131
249 249 246 254 270 277 272 128 104 121 123 127 130 131 134 133 135 142 150 152 150 153 162 165 165 164 170 183 168 157 155 159 160 153 153 154 158 156 155 143 136 126 120 129 133 140 126 117 102